Погода в Сталбе

Латвия     57°22′20″N   25°01′57″E
темп.,
°C
ветер,
м/с
пор.,
м/с
влажн.,
%
обл.,
%
осадки,
мм/ч
давл.,
гПа
погр.,
м
5 марта, пт
пт523:00−2зсз398019 0.0 1011731
02:00−3зсз497444 0.0 1011964
05:00−3ссз5968100 0.1 10121041
08:00−4ссз495364 0.1 1014904
11:00−1сз36370 0.0 10151476
14:000зсз46432 0.0 10161794
17:00−1ссз2362100 0.1 1016862
20:00−3с3765100 0.9 1019876
6 марта, сб
сб623:00−5ссз266346 0.0 1021260
02:00−5зсз246823 0.0 1022140
05:00−6зсз24790 0.0 1022108
08:00−5зюз25780 0.0 1022195
11:00−1зюз585343 0.0 10211105
14:00+2зюз6125071 0.0 10171515
17:00+1зюз61550100 0.0 10141488
20:000зюз71757100 0.0 10101339
7 марта, вс
вс723:000зюз71584100 0.3 10051212
02:00−2ссз71392100 3.8 1004911
05:00−3сз51353100 0.4 10051704
08:00−4зсз4105863 0.4 10051323
11:00−1зсз8135098 0.5 10042147
14:00−1з8155099 1.1 10022417
17:00−1зсз81558100 0.5 10012122
20:00−5сз6137093 0.6 10031257
8 марта, пн
пн823:00−5сз4875100 0.0 10061017
02:00−6ссз388267 0.0 1008536
05:00−7сз249047 0.0 1009139
08:00−7ссз478573 0.1 1012674
11:00−6с4661100 0.1 10141047
14:00−5с5758100 0.1 10161247
17:00−6с4857100 0.0 10181273
20:00−8с396762 0.0 1021604
9 марта, вт
вт923:00−9с25760 0.0 1023187
02:00−9сз12780 0.0 102442
05:00−9зсз12764 0.0 102521
08:00−8юз237116 0.0 102697
11:00−3з35580 0.0 1026748
14:00−1з46440 0.0 1026922
17:00−2з37470 0.0 1025862
20:00−4юз39600 0.0 1026293